Volver al catálogo

STARLINK-37098

ActivoComunicacionesVLEO
NORAD 68192·PAYLOAD·🇺🇸 United States

Lanzado Mar 14, 2026 desde Vandenberg Space Force Base

Loading…

Próximos Pases (próximas 24 horas)

TLE

ActualizadoSource: CelesTrak SupGP

Época: Sep 15, 2026, 03:53 UTC

1 68192C 26050AB  26258.16229167 -.00013984  00000+0 -41327-3 0  2580
2 68192  53.1566 102.6456 0001096  88.3589  99.7615 15.34388821    16

Sigue STARLINK-37098 en tiempo real con AllMySat

Download on the App Store